Location: Roc des P�zouls
(43.9667°N, 3.5500°E)
Time: 18:28:46
(UTC+00:00)

NOSS 3-3 (C) - Pass Details

Date: 14 November 2019
Orbit: 844 x 1368 km, 63.4° (Epoch: 30 November)

Event Time Altitude Azimuth Distance (km) Brightness Sun altitude
Rises 05:10:06 0° 220° (SW) 3,436 6.6 -16.0°
Reaches altitude 10° 05:12:28 10° 222° (SW) 2,538 5.9 -15.6°
Maximum altitude 05:18:21 76° 309° (NW) 977 3.9 -14.6°
Drops below altitude 10° 05:24:58 10° 35° (NE) 2,848 6.7 -13.4°
Sets 05:27:47 0° 37° (NE) 3,886 7.5 -12.9°
